Showing default

IRIDE-MS2-HEO-6, 64576

Orbit data source: Space-Track

IRIDE-MS2-HEO-6, 64576 is an Italian payload satellite in SSO that was launched on Mon, 23 Jun 2025 UTC via an FALCON 9 launch vehicle from the Air Force Western Test Range (AFWTR). Payload-class satellites include a variety of spacecraft equipped with specific instruments for various scientific and technological missions. These include communications satellites like Starlink; space stations such as the ISS; scientific satellites like the Hubble; Earth observation satellites from companies like Planet Labs, Umbra, and HawkEye 360; GPS; miniature CubeSats for education and research; and military/defense satellites.

Loading next visibility...
Identifier
64576, 2025-135BA
Orbit
SSO
Country
Flag of ITIT
Related business
Manufacturer
ArgoTec
Mission
Operational Civil Imaging
Bus & Motor
HAWK, Unknown motor
Mass
65 kg wet, 65 kg dry
Launch date (UTC)
2025-06-23 (10 months ago)
Launch vehicle
FALCON 9
Launch site
Air Force Western Test Range (AFWTR)
Object type
Payload
Rocket body
Debris
Shape & HBR
Box + 2 Pan, 3.0 m
Radar Cross Section
0.683 m², Medium (>0.1 m² and < 1m²)

Expand to show TLE details & history
Last TLE update: 5 hours ago

TLE from 5 hours ago
0 IRIDE-MS2-HEO-6
1 64576U 25135BA  26104.95019512  .00001195  00000-0  11779-3 0  9993
2 64576  97.7634 219.9977 0004120 150.6796 209.4656 14.93880917 44450
Epoch: 2026-04-14T22:48Z
TLE epoch observation values (Epoch: 2026-04-14T22:48:16.858Z)
Latitude
Longitude
34.80836°
Altitude
591.392 km
Speed
7.563 km/s
True Right ascension
14h 39m 59s
True Declination
0° 00' 00"
Sunlit
Object was in full shadow at epoch
Visualization orbit readout
Latitude
Unknown
Longitude
Unknown
Altitude
Unknown
Speed
Unknown
Apparent Right ascension
Unknown
Apparent Declination
Unknown
Sunlit
N/A
Visualization observer readout
Local Sidereal Time
10:27:39
Azimuth
Unknown
Elevation
Unknown
Doppler factor
Unknown
Orbital elements
Apogee altitude
585.733 km
Perigee altitude
579.997 km
Semi-major axis
6,961.002 km
Eccentricity
0.00041
Inclination
97.7634°
RAAN
219.9977°
Arg. of periapsis
150.6796°
True anomaly
209.44239°
Mean anomaly
209.4656°
Eccentric anomaly
209.45399°
Mean motion
3.73711 °/min
Orbital period
96.33 mins
BSTAR
0.00011779
Loading maneuver chart data...
Computing Atmospheric mass density...
Loading historical data...
Loading historical data...
Loading historical data...
Loading historical data...
Loading historical data...
Loading historical data...
Loading historical data...

Documentation

Showing up to 5 results
|